Regional Weather Roundup
Issued by NWS

Home | Current Version | Previous Version | Text Only | Print | Product List | Glossary On
Versions: 1 2 3 4 5 6 7 8 9 10 11 12 13 14 15 16 17 18 19 20 21 22 23 24 25 26 27 28 29 30 31 32 33 34 35 36 37 38 39 40 41 42 43 44 45 46 47 48 49 50
000
ASUS43 KMKX 300911
RWRWI

WISCONSIN REGIONAL WEATHER ROUNDUP
NATIONAL WEATHER SERVICE MILWAUKEE/SULLIVAN WI
400 AM CDT THU MAR 30 2017

NOTE: "FAIR" INDICATES FEW OR NO CLOUDS BELOW 12,000 FEET WITH NO
SIGNIFICANT WEATHER AND/OR OBSTRUCTIONS TO VISIBILITY.

WIZ001-002-006>008-014>016-023>028-301000-
NORTHWEST WISCONSIN

CITY           SKY/WX    TMP DP  RH WIND       PRES   REMARKS
SUPERIOR ARPT  CLOUDY    33  32  95 NE9       30.10F WCI  26
ASHLAND        CLOUDY    30  29  96 CALM      30.10F
HAYWARD        CLOUDY    33  28  81 NE5       30.06F WCI  29
SIREN          CLOUDY    34  29  82 NE5       30.05F WCI  30
CUMBERLAND     CLOUDY    37  32  81 E6        30.03F WCI  33
RICE LAKE      CLOUDY    38  32  77 CALM      30.05F
CHETEK         CLOUDY    38  32  80 E9        30.04F WCI  31
LADYSMITH      CLOUDY    38  28  67 E6        30.05F WCI  33
EAU CLAIRE     CLOUDY    37  34  89 NE15      30.00F WCI  28
MENOMONIE      CLOUDY    37  35  92 NE12      30.01F WCI  30
NEW RICHMOND   CLOUDY    38  34  84 NE6       30.02S WCI  34
OSCEOLA        CLOUDY    40  35  82 NE7       30.05F WCI  35
$$

WIZ003>005-009-010-017-018-301000-
NORTH CENTRAL WISCONSIN

CITY           SKY/WX    TMP DP  RH WIND       PRES   REMARKS
MANITOWISH WTR CLOUDY    33  23  66 SE3       30.06F
ARBOR VITAE    CLOUDY    37  26  66 E3        30.05F
WOODRUFF       CLOUDY    37  26  66 E3        30.05F
RHINELANDER    CLOUDY    34  25  69 E6        30.06F WCI  29
EAGLE RIVER    CLOUDY    33  24  69 E7        30.06F WCI  27
LAND O LAKES   CLOUDY    33  26  75 E6        30.09F WCI  28
PHILLIPS       CLOUDY    35  24  66 E3        30.04F
TOMAHAWK       CLOUDY    33  24  68 E5        30.06F WCI  29
MEDFORD        FLURRIES  32  29  88 NE8       30.02F WCI  25
MERRILL        FLURRIES  34  29  83 E3        30.06F
$$

WIZ029-030-035-036-043>047-301000-
CENTRAL WISCONSIN

CITY           SKY/WX    TMP DP  RH WIND       PRES   REMARKS
WAUSAU         LGT SNOW  33  31  92 E10       30.02F FOG     WCI  25
MOSINEE        FLURRIES  32  32 100 NE10      30.04F WCI  24
MARSHFIELD     FLURRIES  34  32  92 E12       30.00F WCI  25
STEVENS POINT  LGT RAIN  32  32 100 NE9       30.03F WCI  24
WAUPACA        LGT RAIN  37  35  92 NE7       30.04F WCI  31
WAUTOMA        LGT RAIN  35  34  96 NE16      29.99F WCI  25
WISC RAPIDS    FLURRIES  35  35 100 E8        30.03F WCI  29
CAMP DOUGLAS   LGT RAIN  36  34  93 NE12      29.95F WCI  27
$$

WIZ011>013-019>022-031-037>040-048>050-301000-
NORTHEAST WISCONSIN

CITY           SKY/WX    TMP DP  RH WIND       PRES   REMARKS
ANTIGO         LGT SNOW  32  29  89 E6        30.06F WCI  26
SHAWANO        FLURRIES  36  31  85 NE7       30.09F WCI  30
OCONTO         CLOUDY    35  32  89 NE5       30.10S WCI  31
STURGEON BAY   CLOUDY    37  34  89 E5        30.07F WCI  33
GREEN BAY      LGT RAIN  36  36 100 NE7       30.07F WCI  30
MANITOWOC      LGT RAIN  36  31  82 E8        30.07F WCI  30
APPLETON       LGT RAIN  34  34 100 NE12      30.02F WCI  25
CLINTONVILLE   DRIZZLE   34  32  93 NE6       30.07F WCI  29
OSHKOSH        LGT RAIN  37  33  85 E10       30.01F WCI  30
$$

WIZ032>034-041-042-053>061-301000-
SOUTHWEST WISCONSIN

CITY           SKY/WX    TMP DP  RH WIND       PRES   REMARKS
LA CROSSE      LGT RAIN  39  35  86 E8        29.95F WCI  33
SPARTA         LGT RAIN  35  34  96 E9        29.96F WCI  28
VIROQUA        CLOUDY    36  35  97 E20G25    29.89F WCI  25
BOSCOBEL       CLOUDY    40 N/A N/A E10G18    29.89F WCI  33
PRAIRIE DU CHI CLOUDY    38  37  97 NE8G16    29.86F WCI  32
PLATTEVILLE    CLOUDY    40  40 100 E22G28    29.83F WCI  30
$$

WIZ056-057-062-063-064-067-068-301000-
SOUTH CENTRAL WISCONSIN

CITY           SKY/WX    TMP DP  RH WIND       PRES   REMARKS
REEDSBURG      LGT RAIN  36  36 100 E10G16    29.93F WCI  28
BARABOO/DELLS  LGT RAIN  36  35  96 NE12      29.93F WCI  28
LONE ROCK      LGT RAIN  39  35  86 E15       29.90F FOG     WCI  31
MINERAL POINT  DRIZZLE   39  39 100 E14G24    29.86F WCI  31
MADISON        LGT RAIN  38  36  92 E18       29.91F WCI  28
MIDDLETON      CLOUDY    40  39  99 E12G22    29.91F WCI  32
WATERTOWN      LGT RAIN  37  37 100 E15G24    29.94F WCI  28
MONROE         LGT RAIN  37  37 100 E13G26    29.86F WCI  29
JANESVILLE     LGT RAIN  39  39 100 E20G31    29.87F WCI  30
$$

WIZ051-052-058>065-066-070>072-301000-
SOUTHEAST WISCONSIN

CITY           SKY/WX    TMP DP  RH WIND       PRES   REMARKS
MILWAUKEE      RAIN      38  34  85 E17       29.98F FOG     WCI  28
WAUKESHA       RAIN      34  34 100 E12       29.99R WCI  25
MILWAUKEE/TIMM RAIN      36  32  87 E10G17    30.00F WCI  28
RACINE         RAIN      38  35  89 E16G25    29.98F FOG     WCI  29
KENOSHA        RAIN      38  36  92 E18G29    29.95F FOG     WCI  28
FOND DU LAC    LGT RAIN  38  32  79 E12       30.01F WCI  30
SHEBOYGAN      LGT RAIN  36  31  82 E13       30.03F WCI  27
WEST BEND      LGT RAIN  34  34 100 E12       30.01F WCI  25
JUNEAU         RAIN      37  35  93 E14       29.97F WCI  28
$$

LSZ147-162-301000-
LAKE SUPERIOR

STATION/POSITION TIME  TEMP    WIND        PRES    WAVE
                       AIR SEA DIR/SP/G            HT/PER
                 (UTC) (F)     (DEG/KT/KT) (MB)    (FT/S)
DEVILS ISLAND    0800   34      40/ 13/ 14 1020.6F
PORT WING        0840   33      70/  2/  5 1019.3F
SAXON HARBOR     0830   32      CALM  /  2 1019.6S
$$

LMZ867-665-643>646-301000-
LAKE MICHIGAN

STATION/POSITION TIME  TEMP    WIND        PRES    WAVE
                       AIR SEA DIR/SP/G            HT/PER
                 (UTC) (F)     (DEG/KT/KT) (MB)    (FT/S)
CHAMBERS ISLAND  0840   36      80/ 10/ 14 1019.3F
NORTHPORT PIER   0840   36      90/ 14/ 17 1020.0F
SISTER BAY       0821   37     110/ 10/ 16   N/A
KEWAUNEE LAKESHO 0848   37      90/  8/ 11 1018.1F
SHEBOYGAN LAKESH 0900   37      60/ 16/ 18 1017.4F
PORT WASHINGTON  0840   38      80/ 12/ 16 1017.6S
MILWAUKEE LAKESH 0850   37      60/ 14/ 17   N/A
KENOSHA   LAKESH 0900   38      80/ 20/ 23 1014.6
$$

TC  - TEMPERATURE IN CELSIUS
VSB - VISIBILITY IN STATUTE MILES
WCI - WIND CHILL INDEX
HX  - HEAT INDEX




USA.gov is the U.S. government's official web portal to all federal, state and local government web resources and services.